Terminal Aerodrome Forecast
Issued by NWS

Home | Current Version | Previous Version | Text Only | Print | Product List | Glossary On
Versions: 1 2 3 4 5 6 7 8 9 10 11 12 13 14 15 16 17 18 19 20 21 22 23 24 25 26 27 28 29 30 31 32 33 34 35 36 37 38 39 40 41 42 43 44 45 46 47 48 49 50
000
FTUS41 KCTP 290620 AAB
TAFAOO
TAF AMD
KAOO 290620Z 2906/3006 17003KT 2SM -SN OVC030
     FM290700 17003KT P6SM VCSH OVC050
     FM291200 18005KT P6SM BKN150
     FM300100 18005KT P6SM OVC045=

USA.gov is the U.S. government's official web portal to all federal, state and local government web resources and services.